EW7526 Weather Reports


Display with metric or nautical units.
time (UTC)temp
F
wind
direction
speed
MPH
gust
MPH
rain 1hr
in
rain 24hr
in
rain mn
in
humidity
%
barometer
mb
20171213224107 77 206 3.0 5.0 0.00 0.00 0.00 10 1013.5
20171213223606 77 185 3.0 6.0 0.00 0.00 0.00 10 1013.5
20171213223107 77 194 4.0 6.0 0.00 0.00 0.00 10 1013.6
20171213222607 77 170 2.0 5.0 0.00 0.00 0.00 10 1013.6
20171213222107 76 193 4.0 7.0 0.00 0.00 0.00 10 1013.6
20171213221608 76 223 6.0 7.0 0.00 0.00 0.00 10 1013.7
20171213221107 76 200 6.0 8.0 0.00 0.00 0.00 10 1013.7
20171213220607 77 227 3.0 6.0 0.00 0.00 0.00 10 1013.7
20171213220107 77 202 2.0 6.0 0.00 0.00 0.00 10 1013.7
20171213215607 77 181 2.0 6.0 0.00 0.00 0.00 9 1013.8
20171213215108 77 184 2.0 6.0 0.00 0.00 0.00 9 1013.8
20171213214607 77 187 5.0 6.0 0.00 0.00 0.00 9 1013.8
20171213214107 78 198 4.0 7.0 0.00 0.00 0.00 9 1013.8
20171213213607 78 168 5.0 7.0 0.00 0.00 0.00 9 1013.8
20171213213107 77 280 3.0 6.0 0.00 0.00 0.00 9 1014.0
20171213212607 77 180 3.0 6.0 0.00 0.00 0.00 9 1014.0
20171213212106 77 232 4.0 6.0 0.00 0.00 0.00 9 1014.0
20171213211607 77 192 3.0 7.0 0.00 0.00 0.00 9 1014.1
20171213211107 77 221 3.0 6.0 0.00 0.00 0.00 9 1014.1
20171213210607 77 208 5.0 7.0 0.00 0.00 0.00 9 1014.2
20171213210107 77 184 5.0 8.0 0.00 0.00 0.00 9 1014.2
20171213205607 77 169 3.0 6.0 0.00 0.00 0.00 9 1014.4
20171213205107 77 180 5.0 6.0 0.00 0.00 0.00 9 1014.5
20171213204607 78 176 5.0 6.0 0.00 0.00 0.00 10 1014.5
20171213204106 77 137 1.0 3.0 0.00 0.00 0.00 10 1014.7
20171213203607 77 198 2.0 6.0 0.00 0.00 0.00 9 1014.7
20171213203107 77 219 2.0 6.0 0.00 0.00 0.00 9 1014.8
20171213202606 77 180 3.0 6.0 0.00 0.00 0.00 9 1014.8
20171213202107 77 94 3.0 5.0 0.00 0.00 0.00 9 1014.8
20171213201607 77 66 2.0 6.0 0.00 0.00 0.00 9 1014.9
20171213201107 77 164 1.0 3.0 0.00 0.00 0.00 9 1014.9
20171213200606 76 177 1.0 3.0 0.00 0.00 0.00 9 1015.1
20171213200107 76 190 2.0 5.0 0.00 0.00 0.00 9 1015.1
20171213195607 76 196 2.0 5.0 0.00 0.00 0.00 9 1015.3
20171213195106 76 179 4.0 6.0 0.00 0.00 0.00 9 1015.4
20171213194606 76 201 3.0 5.0 0.00 0.00 0.00 10 1015.4
20171213194106 76 184 3.0 6.0 0.00 0.00 0.00 10 1015.6
20171213193606 76 218 3.0 5.0 0.00 0.00 0.00 10 1015.6
20171213193107 75 155 3.0 5.0 0.00 0.00 0.00 10 1015.8
20171213192607 75 162 3.0 6.0 0.00 0.00 0.00 10 1015.8
20171213192106 75 194 2.0 5.0 0.00 0.00 0.00 10 1015.8
20171213191606 75 187 2.0 5.0 0.00 0.00 0.00 10 1015.9
20171213191107 75 172 2.0 5.0 0.00 0.00 0.00 10 1015.9
20171213190606 75 187 3.0 3.0 0.00 0.00 0.00 10 1016.1
20171213190106 74 64 0.0 3.0 0.00 0.00 0.00 10 1016.1
20171213185607 74 175 3.0 5.0 0.00 0.00 0.00 10 1016.3
20171213185106 74 158 2.0 5.0 0.00 0.00 0.00 10 1016.4
20171213184607 74 161 2.0 5.0 0.00 0.00 0.00 11 1016.4
20171213184107 73 176 2.0 6.0 0.00 0.00 0.00 10 1016.8
20171213183606 74 185 2.0 5.0 0.00 0.00 0.00 11 1016.8
20171213183106 72 266 0.0 5.0 0.00 0.00 0.00 11 1017.0
20171213182606 72 31 5.0 6.0 0.00 0.00 0.00 10 1017.0
20171213182107 71 13 2.0 6.0 0.00 0.00 0.00 10 1017.0
20171213181606 71 10 5.0 6.0 0.00 0.00 0.00 11 1017.1
20171213181106 70 18 2.0 6.0 0.00 0.00 0.00 11 1017.1
20171213180606 70 13 3.0 6.0 0.00 0.00 0.00 11 1017.3
20171213180106 70 48 3.0 6.0 0.00 0.00 0.00 11 1017.3
20171213175607 69 340 4.0 6.0 0.00 0.00 0.00 11 1017.4
20171213175106 69 29 5.0 7.0 0.00 0.00 0.00 11 1017.4
20171213174606 69 22 4.0 6.0 0.00 0.00 0.00 11 1017.4
20171213174107 69 10 3.0 7.0 0.00 0.00 0.00 11 1017.6
20171213173606 68 35 6.0 7.0 0.00 0.00 0.00 11 1017.6
20171213173106 68 6 3.0 5.0 0.00 0.00 0.00 11 1017.6
20171213172606 67 16 6.0 8.0 0.00 0.00 0.00 11 1017.6
20171213172107 67 19 5.0 7.0 0.00 0.00 0.00 11 1017.6
20171213171606 66 14 6.0 8.0 0.00 0.00 0.00 12 1017.7
20171213171106 66 13 6.0 9.0 0.00 0.00 0.00 12 1017.7
20171213170606 66 5 6.0 8.0 0.00 0.00 0.00 12 1017.7
20171213170109 66 66 4.0 6.0 0.00 0.00 0.00 12 1017.7
20171213165607 65 10 4.0 8.0 0.00 0.00 0.00 12 1017.7
20171213165106 65 42 6.0 8.0 0.00 0.00 0.00 12 1017.7
20171213164607 65 30 6.0 7.0 0.00 0.00 0.00 12 1017.7
20171213164106 65 24 5.0 6.0 0.00 0.00 0.00 12 1017.8
20171213163606 65 69 6.0 8.0 0.00 0.00 0.00 12 1017.8
20171213163107 64 322 6.0 7.0 0.00 0.00 0.00 12 1017.7
20171213162606 64 358 3.0 7.0 0.00 0.00 0.00 12 1017.7
20171213162107 64 4 5.0 6.0 0.00 0.00 0.00 12 1017.7
20171213161607 63 34 5.0 6.0 0.00 0.00 0.00 12 1017.7
20171213161106 63 6 5.0 6.0 0.00 0.00 0.00 12 1017.7
20171213160607 63 350 7.0 8.0 0.00 0.00 0.00 12 1017.4
20171213160107 62 38 3.0 7.0 0.00 0.00 0.00 12 1017.4
20171213155607 62 332 0.0 7.0 0.00 0.00 0.00 12 1017.4
20171213155107 61 73 3.0 7.0 0.00 0.00 0.00 12 1017.4
20171213154607 59 38 1.0 6.0 0.00 0.00 0.00 13 1017.4
20171213154106 59 26 0.0 0.0 0.00 0.00 0.00 13 1017.4
20171213153606 58 25 1.0 6.0 0.00 0.00 0.00 13 1017.4
20171213153107 58 51 0.0 7.0 0.00 0.00 0.00 13 1017.4
20171213152607 58 41 6.0 7.0 0.00 0.00 0.00 13 1017.4
20171213152107 58 22 6.0 7.0 0.00 0.00 0.00 13 1017.4
20171213151607 58 22 4.0 7.0 0.00 0.00 0.00 13 1017.4
20171213151107 58 32 6.0 9.0 0.00 0.00 0.00 13 1017.4
20171213150607 58 3 6.0 13.0 0.00 0.00 0.00 13 1017.4
20171213150107 59 39 6.0 9.0 0.00 0.00 0.00 13 1017.4
20171213145606 59 354 9.0 13.0 0.00 0.00 0.00 13 1017.4
20171213145107 59 26 6.0 9.0 0.00 0.00 0.00 13 1017.4
20171213144606 59 24 8.0 10.0 0.00 0.00 0.00 13 1017.4
20171213144107 58 25 6.0 10.0 0.00 0.00 0.00 13 1017.3
20171213143606 58 44 7.0 12.0 0.00 0.00 0.00 13 1017.3
20171213143107 58 39 7.0 12.0 0.00 0.00 0.00 13 1017.4
20171213142607 57 12 8.0 10.0 0.00 0.00 0.00 13 1017.4
20171213142106 57 21 8.0 10.0 0.00 0.00 0.00 13 1017.4
20171213141607 57 53 7.0 10.0 0.00 0.00 0.00 13 1017.3
20171213141107 57 5 7.0 10.0 0.00 0.00 0.00 13 1017.3
20171213140607 58 2 9.0 13.0 0.00 0.00 0.00 13 1017.2
20171213140107 58 355 7.0 10.0 0.00 0.00 0.00 13 1017.2
20171213135606 58 30 8.0 10.0 0.00 0.00 0.00 13 1017.2
20171213135107 58 45 9.0 10.0 0.00 0.00 0.00 13 1017.2
20171213134607 59 7 8.0 10.0 0.00 0.00 0.00 13 1017.2
20171213134106 59 18 8.0 9.0 0.00 0.00 0.00 13 1017.0
20171213133607 59 20 9.0 12.0 0.00 0.00 0.00 13 1017.0
20171213133107 58 351 6.0 12.0 0.00 0.00 0.00 13 1017.0
20171213132607 58 352 7.0 10.0 0.00 0.00 0.00 13 1017.0
20171213132106 58 41 6.0 10.0 0.00 0.00 0.00 13 1017.0
20171213131606 59 17 6.0 8.0 0.00 0.00 0.00 13 1016.9
20171213131106 59 27 9.0 13.0 0.00 0.00 0.00 13 1016.9
20171213130607 59 42 6.0 9.0 0.00 0.00 0.00 13 1016.7
20171213130107 58 22 7.0 8.0 0.00 0.00 0.00 13 1016.7
20171213125606 58 14 7.0 9.0 0.00 0.00 0.00 13 1016.7
20171213125106 58 14 3.0 6.0 0.00 0.00 0.00 13 1016.7
20171213124606 58 14 7.0 9.0 0.00 0.00 0.00 13 1016.7
20171213124106 58 24 3.0 10.0 0.00 0.00 0.00 13 1016.6
20171213123606 58 22 7.0 8.0 0.00 0.00 0.00 13 1016.6
20171213123107 58 39 5.0 7.0 0.00 0.00 0.00 13 1016.6
20171213122606 58 26 6.0 8.0 0.00 0.00 0.00 13 1016.6
20171213122107 57 49 4.0 7.0 0.00 0.00 0.00 13 1016.6
20171213121606 57 36 0.0 7.0 0.00 0.00 0.00 13 1016.7
20171213121108 57 29 5.0 7.0 0.00 0.00 0.00 13 1016.7
20171213120606 58 350 5.0 7.0 0.00 0.00 0.00 13 1016.7
20171213120107 58 33 6.0 9.0 0.00 0.00 0.00 13 1016.7
20171213115606 58 59 5.0 7.0 0.00 0.00 0.00 13 1016.7
20171213115107 58 51 4.0 8.0 0.00 0.00 0.00 13 1016.7
20171213114606 58 0 4.0 8.0 0.00 0.00 0.00 13 1016.7
20171213114106 58 7 6.0 9.0 0.00 0.00 0.00 13 1016.8
20171213113606 57 355 0.0 3.0 0.00 0.00 0.00 13 1016.8
20171213113106 57 39 0.0 3.0 0.00 0.00 0.00 13 1016.9
20171213112608 58 334 2.0 6.0 0.00 0.00 0.00 12 1016.9
20171213112108 58 31 4.0 6.0 0.00 0.00 0.00 12 1016.9
20171213111606 58 39 2.0 6.0 0.00 0.00 0.00 12 1016.9
20171213111106 59 33 0.0 0.0 0.00 0.00 0.00 12 1016.9
20171213110606 60 31 0.0 6.0 0.00 0.00 0.00 12 1017.0
20171213110106 60 22 6.0 10.0 0.00 0.00 0.00 12 1017.0
20171213105606 59 20 8.0 10.0 0.00 0.00 0.00 12 1017.1
20171213105106 59 5 6.0 7.0 0.00 0.00 0.00 12 1017.1
20171213104606 59 14 7.0 10.0 0.00 0.00 0.00 12 1017.1
20171213104106 59 30 7.0 10.0 0.00 0.00 0.00 12 1017.2
20171213103606 60 358 7.0 12.0 0.00 0.00 0.00 12 1017.2
20171213103106 60 30 7.0 12.0 0.00 0.00 0.00 12 1017.1
20171213102606 60 28 7.0 10.0 0.00 0.00 0.00 12 1017.1
20171213102106 61 16 7.0 10.0 0.00 0.00 0.00 12 1017.1
20171213101605 62 12 8.0 12.0 0.00 0.00 0.00 12 1017.2
20171213101106 62 335 9.0 10.0 0.00 0.00 0.00 12 1017.2
20171213100606 61 292 7.0 7.0 0.00 0.00 0.00 12 1017.2
20171213100106 61 306 10.0 12.0 0.00 0.00 0.00 12 1017.2
20171213095606 62 22 9.0 10.0 0.00 0.00 0.00 12 1017.2
20171213095105 61 24 7.0 10.0 0.00 0.00 0.00 12 1017.2
20171213094605 61 28 8.0 9.0 0.00 0.00 0.00 12 1017.2
20171213094105 60 68 6.0 9.0 0.00 0.00 0.00 12 1017.3
20171213093606 60 355 6.0 7.0 0.00 0.00 0.00 12 1017.3
20171213093106 60 350 5.0 7.0 0.00 0.00 0.00 12 1017.2
20171213092605 60 18 6.0 9.0 0.00 0.00 0.00 12 1017.2
20171213092106 61 29 6.0 8.0 0.00 0.00 0.00 12 1017.2
20171213091605 61 350 6.0 8.0 0.00 0.00 0.00 12 1017.2
20171213091106 62 10 7.0 10.0 0.00 0.00 0.00 12 1017.2
20171213090606 62 7 8.0 10.0 0.00 0.00 0.00 12 1017.2
20171213084606 60 32 7.0 8.0 0.00 0.00 0.00 12 1017.2
20171213084105 60 37 7.0 9.0 0.00 0.00 0.00 12 1017.4
20171213083605 60 37 7.0 7.0 0.00 0.00 0.00 12 1017.4
20171213083106 60 22 7.0 9.0 0.00 0.00 0.00 12 1017.5
20171213082606 60 40 6.0 10.0 0.00 0.00 0.00 12 1017.5
20171213082105 60 348 4.0 13.0 0.00 0.00 0.00 12 1017.7
20171213081606 59 328 4.0 9.0 0.00 0.00 0.00 12 1017.8
20171213081107 59 17 5.0 7.0 0.00 0.00 0.00 12 1017.8
20171213080608 59 22 7.0 9.0 0.00 0.00 0.00 12 1017.8
20171213080107 58 351 5.0 7.0 0.00 0.00 0.00 12 1017.8
20171213075606 58 21 0.0 0.0 0.00 0.00 0.00 12 1018.0
20171213075106 58 15 0.0 0.0 0.00 0.00 0.00 12 1018.0
20171213074606 58 37 0.0 0.0 0.00 0.00 0.00 12 1018.0
20171213074106 58 41 0.0 0.0 0.00 0.00 0.00 12 1017.8
20171213073606 58 45 0.0 0.0 0.00 0.00 0.00 12 1017.8
20171213073106 58 45 0.0 0.0 0.00 0.00 0.00 12 1017.9
20171213072606 58 344 0.0 0.0 0.00 0.00 0.00 12 1017.9
20171213072106 59 2 0.0 0.0 0.00 0.00 0.00 12 1018.0
20171213071606 59 20 0.0 0.0 0.00 0.00 0.00 12 1018.0
20171213071106 59 343 0.0 5.0 0.00 0.00 0.00 12 1018.0
20171213070606 59 359 0.0 2.0 0.00 0.00 0.00 12 1018.2
20171213070107 60 45 2.0 2.0 0.00 0.00 0.00 12 1018.2
20171213065606 60 34 5.0 6.0 0.00 0.00 0.00 12 1018.3
20171213065106 60 63 4.0 7.0 0.00 0.00 0.00 12 1018.3
20171213064607 60 28 5.0 6.0 0.00 0.00 0.00 12 1018.3
20171213064106 60 353 0.0 6.0 0.00 0.00 0.00 12 1018.2
20171213063606 60 17 0.0 2.0 0.00 0.00 0.00 12 1018.2
20171213063106 60 22 0.0 6.0 0.00 0.00 0.00 12 1018.3
20171213062606 60 29 3.0 8.0 0.00 0.00 0.00 12 1018.3
20171213062107 59 18 3.0 6.0 0.00 0.00 0.00 12 1018.4
20171213061606 58 40 0.0 3.0 0.00 0.00 0.00 13 1018.4
20171213061106 57 64 0.0 1.0 0.00 0.00 0.00 13 1018.4
20171213060607 56 36 0.0 0.0 0.00 0.00 0.00 14 1018.4
20171213060108 55 322 0.0 0.0 0.00 0.00 0.00 14 1018.4
20171213055606 55 351 0.0 0.0 0.00 0.00 0.00 14 1018.6
20171213055106 55 249 0.0 0.0 0.00 0.00 0.00 14 1018.6
20171213054606 54 35 0.0 0.0 0.00 0.00 0.00 15 1018.6
20171213054106 53 36 0.0 0.0 0.00 0.00 0.00 16 1018.7
20171213053606 53 29 0.0 0.0 0.00 0.00 0.00 16 1018.7
20171213053106 53 8 0.0 0.0 0.00 0.00 0.00 17 1018.8
20171213052606 53 149 0.0 0.0 0.00 0.00 0.00 17 1018.8
20171213052106 54 108 0.0 0.0 0.00 0.00 0.00 17 1018.7
20171213051606 54 222 0.0 0.0 0.00 0.00 0.00 16 1018.7
20171213051106 55 130 0.0 0.0 0.00 0.00 0.00 16 1018.7
20171213050607 55 141 0.0 0.0 0.00 0.00 0.00 15 1018.7
20171213050109 56 158 0.0 0.0 0.00 0.00 0.00 15 1018.7
20171213045606 56 164 0.0 0.0 0.00 0.00 0.00 14 1018.7
20171213045106 56 90 0.0 0.0 0.00 0.00 0.00 13 1018.7
20171213044606 57 86 0.0 0.0 0.00 0.00 0.00 13 1018.7
20171213044106 58 112 0.0 0.0 0.00 0.00 0.00 13 1018.7
20171213043606 58 0 0.0 0.0 0.00 0.00 0.00 13 1018.7
20171213043106 59 149 0.0 0.0 0.00 0.00 0.00 13 1018.7
20171213042606 59 144 0.0 0.0 0.00 0.00 0.00 13 1018.7
20171213042106 59 33 0.0 0.0 0.00 0.00 0.00 13 1018.7
20171213041606 59 43 0.0 0.0 0.00 0.00 0.00 13 1018.8
20171213041107 58 344 0.0 0.0 0.00 0.00 0.00 13 1018.8
20171213040606 59 356 0.0 0.0 0.00 0.00 0.00 13 1018.8
20171213040108 58 352 0.0 0.0 0.00 0.00 0.00 13 1018.8
20171213035606 58 43 0.0 0.0 0.00 0.00 0.00 13 1018.7
20171213035106 58 31 0.0 0.0 0.00 0.00 0.00 14 1018.7
20171213034606 58 9 0.0 0.0 0.00 0.00 0.00 14 1018.7
20171213034106 58 28 0.0 0.0 0.00 0.00 0.00 14 1018.7
20171213033606 58 9 0.0 0.0 0.00 0.00 0.00 14 1018.7
20171213033107 59 36 0.0 0.0 0.00 0.00 0.00 14 1018.7
20171213032606 59 38 0.0 0.0 0.00 0.00 0.00 14 1018.7
20171213032106 59 52 0.0 0.0 0.00 0.00 0.00 14 1018.7
20171213031606 59 28 0.0 0.0 0.00 0.00 0.00 14 1018.7
20171213031106 59 28 0.0 0.0 0.00 0.00 0.00 13 1018.7
20171213030606 59 33 0.0 0.0 0.00 0.00 0.00 13 1018.7
20171213030107 60 30 0.0 0.0 0.00 0.00 0.00 13 1018.7
20171213025607 60 22 0.0 0.0 0.00 0.00 0.00 13 1018.6
20171213025106 60 31 0.0 0.0 0.00 0.00 0.00 13 1018.6
20171213024606 60 56 0.0 0.0 0.00 0.00 0.00 13 1018.6
20171213024106 61 43 0.0 0.0 0.00 0.00 0.00 13 1018.7
20171213023606 61 42 0.0 0.0 0.00 0.00 0.00 13 1018.7
20171213023106 61 43 0.0 0.0 0.00 0.00 0.00 13 1018.8
20171213022606 61 0 0.0 0.0 0.00 0.00 0.00 13 1018.8
20171213022106 61 42 0.0 0.0 0.00 0.00 0.00 13 1018.8
20171213021606 62 13 0.0 0.0 0.00 0.00 0.00 13 1018.8
20171213021106 62 47 0.0 0.0 0.00 0.00 0.00 12 1018.8
20171213020606 63 18 0.0 0.0 0.00 0.00 0.00 12 1018.8
20171213020108 63 57 0.0 0.0 0.00 0.00 0.00 12 1018.8
20171213015606 63 51 0.0 0.0 0.00 0.00 0.00 12 1018.7
20171213015106 64 22 0.0 0.0 0.00 0.00 0.00 12 1018.7
20171213014605 64 75 0.0 0.0 0.00 0.00 0.00 12 1018.7
20171213014106 65 170 0.0 0.0 0.00 0.00 0.00 12 1018.7
20171213013606 65 159 0.0 0.0 0.00 0.00 0.00 12 1018.7
20171213013106 66 168 0.0 0.0 0.00 0.00 0.00 11 1018.8
20171213012606 66 276 0.0 0.0 0.00 0.00 0.00 11 1018.8
20171213012106 66 273 0.0 0.0 0.00 0.00 0.00 11 1018.7
20171213011606 66 192 0.0 0.0 0.00 0.00 0.00 11 1018.6
20171213011106 67 14 0.0 0.0 0.00 0.00 0.00 11 1018.6
20171213010607 67 348 0.0 0.0 0.00 0.00 0.00 11 1018.7
20171213010107 68 169 0.0 0.0 0.00 0.00 0.00 11 1018.7
20171213005606 68 170 0.0 0.0 0.00 0.00 0.00 10 1018.6
20171213005106 68 159 0.0 0.0 0.00 0.00 0.00 10 1018.6
20171213004606 69 171 0.0 1.0 0.00 0.00 0.00 10 1018.6
20171213004106 69 165 2.0 3.0 0.00 0.00 0.00 10 1018.5
20171213003606 69 176 0.0 0.0 0.00 0.00 0.00 10 1018.5
20171213003105 70 143 0.0 2.0 0.00 0.00 0.00 10 1018.5
20171213002605 70 156 1.0 3.0 0.00 0.00 0.00 10 1018.5
20171213002105 70 155 0.0 0.0 0.00 0.00 0.00 10 1018.4
20171213001606 70 130 0.0 0.0 0.00 0.00 0.00 10 1018.4
20171213001106 71 167 0.0 0.0 0.00 0.00 0.00 10 1018.4
20171213000606 71 189 0.0 3.0 0.00 0.00 0.00 10 1018.5
20171213000107 72 327 1.0 5.0 0.00 0.00 0.00 10 1018.5
20171212235606 72 177 3.0 5.0 0.00 0.00 0.00 10 1018.5
20171212235106 73 158 3.0 6.0 0.00 0.00 0.00 10 1018.5
20171212234606 73 159 0.0 5.0 0.00 0.00 0.00 10 1018.5
20171212234105 73 162 3.0 5.0 0.00 0.00 0.00 10 1018.6
20171212233606 73 163 5.0 6.0 0.00 0.00 0.00 10 1018.6
20171212233106 74 138 3.0 6.0 0.00 0.00 0.00 10 1018.7
20171212232606 74 173 3.0 6.0 0.00 0.00 0.00 10 1018.7
20171212232106 74 144 4.0 6.0 0.00 0.00 0.00 10 1018.6
20171212231606 74 178 2.0 5.0 0.00 0.00 0.00 10 1018.6
20171212231106 75 145 3.0 5.0 0.00 0.00 0.00 9 1018.6
20171212230606 76 185 2.0 6.0 0.00 0.00 0.00 9 1018.6
20171212230108 77 127 5.0 7.0 0.00 0.00 0.00 8 1018.6
20171212225606 77 191 5.0 6.0 0.00 0.00 0.00 8 1018.6
20171212225105 77 59 3.0 8.0 0.00 0.00 0.00 8 1018.6
20171212224605 77 116 3.0 6.0 0.00 0.00 0.00 8 1018.6